When you browse on this site, cookies collect data to enhance your experience and personalize the content and advertising you see.
Visit our Privacy Policy to learn more. By continuing to use the site, you agree to this use of cookies and data.
  • In Hungary
  • List of Countries
  • For 7 days
  • Water Temperature
  • Weather Map
  • News
  • Weather Widgets
  • user-avatar
    Login

    Hourly Weather Brazzaville

    Today, 22 November, Friday

    Time Temperature Precipitation Wind Pressure Humidity
    00:00 +22°C° 0 mm 0 mps 734 mmHg 94%
    01:00 +24°C° 0 mm 1 mps 734 mmHg 91%
    02:00 +24°C° 0 mm 1 mps 734 mmHg 91%
    03:00 +23°C° 0 mm 1 mps 733 mmHg 91%
    04:00 +21°C° 0 mm 0 mps 733 mmHg 91%
    05:00 +21°C° 0.3 mm 0 mps 734 mmHg 91%
    06:00 +21°C° 0.3 mm 0 mps 734 mmHg 92%
    07:00 +22°C° 0 mm 0 mps 735 mmHg 91%
    08:00 +25°C° 0.1 mm 1 mps 735 mmHg 87%
    09:00 +26°C° 0.1 mm 2 mps 735 mmHg 83%
    10:00 +27°C° 0.1 mm 2 mps 735 mmHg 79%
    11:00 +28°C° 0 mm 3 mps 735 mmHg 75%
    12:00 +29°C° 0 mm 3 mps 734 mmHg 70%
    13:00 +30°C° 0 mm 3 mps 734 mmHg 66%
    14:00 +29°C° 0 mm 3 mps 733 mmHg 68%
    15:00 +29°C° 0 mm 2 mps 733 mmHg 71%
    16:00 +28°C° 0 mm 2 mps 732 mmHg 73%
    17:00 +27°C° 0 mm 2 mps 733 mmHg 76%
    18:00 +26°C° 0 mm 1 mps 733 mmHg 78%
    19:00 +25°C° 0 mm 1 mps 734 mmHg 81%
    20:00 +25°C° 0 mm 1 mps 734 mmHg 81%
    21:00 +25°C° 0 mm 1 mps 735 mmHg 81%
    22:00 +23°C° 0 mm 0 mps 735 mmHg 80%
    23:00 +25°C° 0 mm 1 mps 735 mmHg 81%

    Tomorrow, 23 November, Saturday

    Time Temperature Precipitation Wind Pressure Humidity
    00:00 +25°C° 0 mm 1 mps 734 mmHg 81%
    01:00 +24°C° 0 mm 1 mps 734 mmHg 81%
    02:00 +24°C° 0 mm 1 mps 734 mmHg 82%
    03:00 +22°C° 0 mm 0 mps 734 mmHg 83%
    04:00 +22°C° 0 mm 0 mps 733 mmHg 84%
    05:00 +22°C° 0 mm 0 mps 734 mmHg 83%
    06:00 +23°C° 0 mm 0 mps 734 mmHg 83%
    07:00 +23°C° 0 mm 0 mps 735 mmHg 83%
    08:00 +25°C° 0 mm 0 mps 735 mmHg 76%
    09:00 +27°C° 0 mm 0 mps 735 mmHg 70%
    10:00 +29°C° 0 mm 0 mps 735 mmHg 63%
    11:00 +29°C° 0 mm 0 mps 735 mmHg 62%
    12:00 +31°C° 0 mm 1 mps 734 mmHg 61%
    13:00 +32°C° 0 mm 1 mps 734 mmHg 60%
    14:00 +31°C° 0.1 mm 1 mps 733 mmHg 65%
    15:00 +29°C° 0.1 mm 1 mps 733 mmHg 71%
    16:00 +28°C° 0.1 mm 1 mps 732 mmHg 76%
    17:00 +28°C° 0 mm 1 mps 733 mmHg 78%
    18:00 +25°C° 0 mm 0 mps 733 mmHg 81%
    19:00 +24°C° 0 mm 0 mps 734 mmHg 83%
    20:00 +24°C° 0 mm 0 mps 734 mmHg 84%
    21:00 +23°C° 0 mm 0 mps 734 mmHg 85%
    22:00 +23°C° 0 mm 0 mps 734 mmHg 86%
    23:00 +23°C° 0 mm 0 mps 734 mmHg 87%

    Day after tomorrow, 24 November, Sunday

    Time Temperature Precipitation Wind Pressure Humidity
    00:00 +23°C° 0 mm 0 mps 734 mmHg 88%
    01:00 +22°C° 0 mm 0 mps 733 mmHg 89%
    02:00 +22°C° 0 mm 0 mps 733 mmHg 89%
    03:00 +22°C° 0 mm 0 mps 733 mmHg 89%
    04:00 +22°C° 0 mm 0 mps 732 mmHg 89%
    05:00 +23°C° 0 mm 0 mps 733 mmHg 88%
    06:00 +23°C° 0 mm 0 mps 734 mmHg 87%
    07:00 +23°C° 0 mm 0 mps 734 mmHg 86%
    08:00 +25°C° 0 mm 0 mps 734 mmHg 81%
    09:00 +26°C° 0 mm 0 mps 734 mmHg 75%
    10:00 +28°C° 0 mm 0 mps 734 mmHg 70%
    11:00 +28°C° 0 mm 0 mps 734 mmHg 67%
    12:00 +31°C° 0 mm 1 mps 733 mmHg 63%
    13:00 +32°C° 0 mm 1 mps 733 mmHg 60%
    14:00 +31°C° 0.9 mm 1 mps 732 mmHg 65%
    15:00 +31°C° 0.9 mm 1 mps 732 mmHg 69%
    16:00 +28°C° 0.9 mm 0 mps 731 mmHg 74%
    17:00 +27°C° 0.3 mm 0 mps 732 mmHg 77%
    18:00 +26°C° 0.3 mm 0 mps 732 mmHg 80%
    19:00 +25°C° 0.3 mm 0 mps 733 mmHg 84%
    20:00 +24°C° 0.2 mm 0 mps 733 mmHg 84%
    21:00 +24°C° 0.2 mm 0 mps 733 mmHg 85%
    22:00 +24°C° 0.2 mm 0 mps 734 mmHg 86%
    23:00 +23°C° 0.2 mm 0 mps 734 mmHg 87%

    25 November, Monday

    Time Temperature Precipitation Wind Pressure Humidity
    00:00 +23°C° 0.2 mm 0 mps 733 mmHg 88%
    01:00 +23°C° 0.2 mm 0 mps 733 mmHg 89%
    02:00 +22°C° 0 mm 0 mps 733 mmHg 90%
    03:00 +22°C° 0 mm 0 mps 732 mmHg 90%
    04:00 +22°C° 0 mm 0 mps 732 mmHg 91%
    05:00 +22°C° 0 mm 0 mps 733 mmHg 90%
    06:00 +23°C° 0 mm 0 mps 733 mmHg 89%
    07:00 +23°C° 0 mm 0 mps 734 mmHg 88%
    08:00 +25°C° 0.1 mm 0 mps 734 mmHg 81%
    09:00 +27°C° 0.1 mm 0 mps 734 mmHg 75%
    10:00 +29°C° 0.1 mm 0 mps 734 mmHg 68%
    11:00 +30°C° 0.4 mm 0 mps 733 mmHg 65%
    12:00 +30°C° 0.4 mm 0 mps 733 mmHg 62%
    13:00 +33°C° 0.4 mm 1 mps 732 mmHg 59%
    14:00 +33°C° 0.1 mm 1 mps 732 mmHg 61%
    15:00 +32°C° 0.1 mm 1 mps 731 mmHg 63%
    16:00 +32°C° 0.1 mm 1 mps 731 mmHg 65%
    17:00 +30°C° 0.4 mm 1 mps 731 mmHg 69%
    18:00 +29°C° 0.4 mm 1 mps 732 mmHg 74%
    19:00 +28°C° 0.4 mm 1 mps 732 mmHg 78%
    20:00 +25°C° 0.7 mm 0 mps 733 mmHg 81%
    21:00 +25°C° 0.7 mm 0 mps 733 mmHg 83%
    22:00 +24°C° 0.7 mm 0 mps 734 mmHg 86%
    23:00 +24°C° 1.8 mm 0 mps 733 mmHg 88%

    26 November, Tuesday

    Time Temperature Precipitation Wind Pressure Humidity
    00:00 +24°C° 1.8 mm 0 mps 733 mmHg 89%
    01:00 +23°C° 1.8 mm 0 mps 733 mmHg 91%
    02:00 +23°C° 0.6 mm 0 mps 733 mmHg 91%
    03:00 +23°C° 0.6 mm 0 mps 732 mmHg 92%
    04:00 +23°C° 0.6 mm 0 mps 732 mmHg 92%
    05:00 +23°C° 0 mm 0 mps 733 mmHg 91%
    06:00 +24°C° 0 mm 0 mps 733 mmHg 91%
    07:00 +24°C° 0 mm 0 mps 733 mmHg 90%
    08:00 +26°C° 0.5 mm 0 mps 733 mmHg 83%
    09:00 +28°C° 0.5 mm 0 mps 733 mmHg 75%
    10:00 +30°C° 0.5 mm 0 mps 733 mmHg 67%
    11:00 +31°C° 0.7 mm 0 mps 733 mmHg 63%
    12:00 +32°C° 0.7 mm 0 mps 732 mmHg 59%
    13:00 +35°C° 0.7 mm 1 mps 731 mmHg 55%
    14:00 +34°C° 0.5 mm 1 mps 731 mmHg 58%
    15:00 +33°C° 0.5 mm 1 mps 730 mmHg 61%
    16:00 +33°C° 0.5 mm 1 mps 730 mmHg 64%
    17:00 +31°C° 1.1 mm 1 mps 730 mmHg 71%
    18:00 +29°C° 1.1 mm 1 mps 731 mmHg 77%
    19:00 +27°C° 1.1 mm 1 mps 731 mmHg 84%
    20:00 +27°C° 0.3 mm 1 mps 732 mmHg 85%
    21:00 +26°C° 0.3 mm 1 mps 732 mmHg 86%
    22:00 +26°C° 0.3 mm 1 mps 733 mmHg 87%
    23:00 +26°C° 0.2 mm 1 mps 733 mmHg 88%

    27 November, Wednesday

    Time Temperature Precipitation Wind Pressure Humidity
    00:00 +26°C° 0.2 mm 1 mps 732 mmHg 88%
    01:00 +25°C° 0.2 mm 1 mps 732 mmHg 89%
    02:00 +25°C° 0 mm 1 mps 732 mmHg 90%
    03:00 +25°C° 0 mm 1 mps 732 mmHg 91%
    04:00 +25°C° 0 mm 1 mps 732 mmHg 92%
    05:00 +25°C° 0.1 mm 1 mps 732 mmHg 91%
    06:00 +25°C° 0.1 mm 1 mps 733 mmHg 91%
    07:00 +26°C° 0.1 mm 1 mps 733 mmHg 91%
    08:00 +26°C° 0 mm 1 mps 733 mmHg 88%
    09:00 +27°C° 0 mm 2 mps 734 mmHg 85%
    10:00 +28°C° 0 mm 2 mps 734 mmHg 82%
    11:00 +29°C° 0.2 mm 2 mps 733 mmHg 78%
    12:00 +30°C° 0.2 mm 2 mps 732 mmHg 75%
    13:00 +31°C° 0.2 mm 2 mps 731 mmHg 71%
    14:00 +31°C° 0.8 mm 2 mps 731 mmHg 72%
    15:00 +30°C° 0.8 mm 2 mps 731 mmHg 73%
    16:00 +30°C° 0.8 mm 2 mps 730 mmHg 74%
    17:00 +29°C° 0.7 mm 2 mps 731 mmHg 77%
    18:00 +28°C° 0.7 mm 1 mps 731 mmHg 81%
    19:00 +26°C° 0.7 mm 1 mps 732 mmHg 85%
    20:00 +26°C° 0.7 mm 1 mps 732 mmHg 85%
    21:00 +26°C° 0.7 mm 1 mps 733 mmHg 86%
    22:00 +23°C° 0.7 mm 0 mps 733 mmHg 86%
    23:00 +23°C° 0.2 mm 0 mps 733 mmHg 87%
    Show more